Time,TemperatureF,DewpointF,PressureIn,WindDirection,WindDirectionDegrees,WindSpeedMPH,WindSpeedGustMPH,Humidity,HourlyPrecipIn,Conditions,Clouds,dailyrainin,SoftwareType,DateUTC
2013-01-03 00:04:00,18.2,4.6,30.11,NNW,338,2.5,6.7,55,0.00,,,0.00,WUHU216HW,2013-01-03 05:04:00,
2013-01-03 00:09:00,18.0,4.9,30.12,North,0,4.0,6.7,56,0.00,,,0.00,WUHU216HW,2013-01-03 05:09:00,
2013-01-03 00:14:00,17.8,4.3,30.12,WSW,248,1.8,4.7,55,0.00,,,0.00,WUHU216HW,2013-01-03 05:14:00,
2013-01-03 00:19:00,17.6,4.5,30.12,ENE,68,1.8,4.7,56,0.00,,,0.00,WUHU216HW,2013-01-03 05:19:00,
2013-01-03 00:24:00,17.6,4.5,30.12,North,0,1.1,5.6,56,0.00,,,0.00,WUHU216HW,2013-01-03 05:24:00,
2013-01-03 00:29:00,17.5,4.3,30.13,NNW,338,0.7,5.6,56,0.00,,,0.00,WUHU216HW,2013-01-03 05:29:00,
2013-01-03 00:34:00,17.3,3.8,30.13,NW,315,3.4,4.7,55,0.00,,,0.00,WUHU216HW,2013-01-03 05:34:00,
2013-01-03 00:39:00,16.9,3.4,30.13,West,270,2.9,4.0,55,0.00,,,0.00,WUHU216HW,2013-01-03 05:39:00,
2013-01-03 00:44:00,16.7,3.3,30.13,South,180,1.6,3.8,55,0.00,,,0.00,WUHU216HW,2013-01-03 05:44:00,
2013-01-03 00:49:00,16.7,3.7,30.13,NW,315,1.8,6.0,56,0.00,,,0.00,WUHU216HW,2013-01-03 05:49:00,
2013-01-03 00:54:00,16.6,3.5,30.13,NNW,338,2.9,6.0,56,0.00,,,0.00,WUHU216HW,2013-01-03 05:54:00,
2013-01-03 00:59:00,16.4,3.7,30.14,NNE,23,1.8,4.7,57,0.00,,,0.00,WUHU216HW,2013-01-03 05:59:00,
2013-01-03 01:04:00,16.2,3.5,30.14,North,0,3.8,8.3,57,0.00,,,0.00,WUHU216HW,2013-01-03 06:04:00,
2013-01-03 01:09:00,15.8,3.2,30.14,NNE,23,2.5,8.3,57,0.00,,,0.00,WUHU216HW,2013-01-03 06:09:00,
2013-01-03 01:14:00,15.7,3.4,30.14,WNW,293,1.3,5.1,58,0.00,,,0.00,WUHU216HW,2013-01-03 06:14:00,
2013-01-03 01:19:00,15.5,3.3,30.14,NNW,338,2.5,5.1,58,0.00,,,0.00,WUHU216HW,2013-01-03 06:19:00,
2013-01-03 01:24:00,15.5,3.3,30.14,North,0,2.0,3.1,58,0.00,,,0.00,WUHU216HW,2013-01-03 06:24:00,
2013-01-03 01:29:00,15.5,3.3,30.14,NNE,23,1.8,4.0,58,0.00,,,0.00,WUHU216HW,2013-01-03 06:29:00,
2013-01-03 01:34:00,15.1,2.9,30.13,NNE,23,1.1,4.0,58,0.00,,,0.00,WUHU216HW,2013-01-03 06:34:00,
2013-01-03 01:39:00,14.9,2.7,30.13,NE,45,0.7,3.8,58,0.00,,,0.00,WUHU216HW,2013-01-03 06:39:00,
2013-01-03 01:44:00,14.8,2.6,30.14,NNE,23,0.4,3.6,58,0.00,,,0.00,WUHU216HW,2013-01-03 06:44:00,
2013-01-03 01:49:00,14.6,2.4,30.14,North,0,1.8,4.0,58,0.00,,,0.00,WUHU216HW,2013-01-03 06:49:00,
2013-01-03 01:54:00,14.4,2.3,30.14,WSW,248,0.4,4.0,58,0.00,,,0.00,WUHU216HW,2013-01-03 06:54:00,
2013-01-03 01:59:00,14.2,2.1,30.14,North,0,0.7,3.4,58,0.00,,,0.00,WUHU216HW,2013-01-03 06:59:00,
2013-01-03 02:04:00,14.2,2.1,30.14,North,0,0.2,1.8,58,0.00,,,0.00,WUHU216HW,2013-01-03 07:04:00,
2013-01-03 02:09:00,14.0,1.9,30.13,North,0,0.4,1.6,58,0.00,,,0.00,WUHU216HW,2013-01-03 07:09:00,
2013-01-03 02:14:00,13.9,2.2,30.14,North,0,0.4,3.1,59,0.00,,,0.00,WUHU216HW,2013-01-03 07:14:00,
2013-01-03 02:19:00,13.9,2.2,30.13,WNW,293,0.7,3.1,59,0.00,,,0.00,WUHU216HW,2013-01-03 07:19:00,
2013-01-03 02:24:00,13.5,1.8,30.14,North,0,0.0,3.1,59,0.00,,,0.00,WUHU216HW,2013-01-03 07:24:00,
2013-01-03 02:29:00,13.5,1.8,30.14,WNW,293,0.2,3.4,59,0.00,,,0.00,WUHU216HW,2013-01-03 07:29:00,
2013-01-03 02:34:00,13.3,1.6,30.14,WNW,293,0.4,3.4,59,0.00,,,0.00,WUHU216HW,2013-01-03 07:34:00,
2013-01-03 02:39:00,13.1,1.5,30.14,West,270,0.7,2.0,59,0.00,,,0.00,WUHU216HW,2013-01-03 07:39:00,
2013-01-03 02:44:00,13.1,1.5,30.14,North,0,2.5,2.5,59,0.00,,,0.00,WUHU216HW,2013-01-03 07:44:00,
2013-01-03 02:49:00,13.0,1.3,30.14,NW,315,1.3,2.5,59,0.00,,,0.00,WUHU216HW,2013-01-03 07:49:00,
2013-01-03 02:54:00,13.0,1.3,30.14,North,0,0.4,2.7,59,0.00,,,0.00,WUHU216HW,2013-01-03 07:54:00,
2013-01-03 02:59:00,12.8,1.1,30.14,NNW,338,0.4,2.7,59,0.00,,,0.00,WUHU216HW,2013-01-03 07:59:00,
2013-01-03 03:04:00,12.8,1.1,30.14,NE,45,0.2,1.1,59,0.00,,,0.00,WUHU216HW,2013-01-03 08:04:00,
2013-01-03 03:09:00,12.6,0.9,30.13,NE,45,0.0,1.1,59,0.00,,,0.00,WUHU216HW,2013-01-03 08:09:00,
2013-01-03 03:14:00,12.6,0.9,30.13,NE,45,0.0,0.2,59,0.00,,,0.00,WUHU216HW,2013-01-03 08:14:00,
2013-01-03 03:19:00,12.4,0.7,30.13,WNW,293,0.0,2.0,59,0.00,,,0.00,WUHU216HW,2013-01-03 08:19:00,
2013-01-03 03:24:00,12.2,0.6,30.13,NW,315,0.0,2.0,59,0.00,,,0.00,WUHU216HW,2013-01-03 08:24:00,
2013-01-03 03:29:00,12.1,0.4,30.13,NW,315,0.9,2.5,59,0.00,,,0.00,WUHU216HW,2013-01-03 08:29:00,
2013-01-03 03:34:00,11.9,-0.2,30.13,West,270,0.0,2.5,58,0.00,,,0.00,WUHU216HW,2013-01-03 08:34:00,
2013-01-03 03:39:00,11.9,-0.2,30.13,North,0,0.4,2.2,58,0.00,,,0.00,WUHU216HW,2013-01-03 08:39:00,
2013-01-03 03:44:00,11.9,-0.2,30.12,NW,315,1.1,3.4,58,0.00,,,0.00,WUHU216HW,2013-01-03 08:44:00,
2013-01-03 03:49:00,11.9,-0.2,30.12,NNE,23,1.3,3.4,58,0.00,,,0.00,WUHU216HW,2013-01-03 08:49:00,
2013-01-03 03:54:00,11.7,-0.4,30.12,WSW,248,0.9,3.8,58,0.00,,,0.00,WUHU216HW,2013-01-03 08:54:00,
2013-01-03 03:59:00,11.7,-0.4,30.12,North,0,2.9,3.8,58,0.00,,,0.00,WUHU216HW,2013-01-03 08:59:00,
2013-01-03 04:04:00,11.7,-0.4,30.12,NE,45,0.7,4.0,58,0.00,,,0.00,WUHU216HW,2013-01-03 09:04:00,
2013-01-03 04:09:00,11.5,-0.5,30.12,WNW,293,0.9,4.0,58,0.00,,,0.00,WUHU216HW,2013-01-03 09:09:00,
2013-01-03 04:14:00,11.2,-1.2,30.12,WNW,293,1.1,3.4,57,0.00,,,0.00,WUHU216HW,2013-01-03 09:14:00,
2013-01-03 04:19:00,11.2,-1.2,30.12,WNW,293,0.0,3.4,57,0.00,,,0.00,WUHU216HW,2013-01-03 09:19:00,
2013-01-03 04:25:00,11.0,-1.3,30.12,ENE,68,0.0,2.9,57,0.00,,,0.00,WUHU216HW,2013-01-03 09:25:00,
2013-01-03 04:30:00,11.0,-1.3,30.12,West,270,0.0,1.6,57,0.00,,,0.00,WUHU216HW,2013-01-03 09:30:00,
2013-01-03 04:35:00,11.0,-1.3,30.12,WSW,248,0.0,0.4,57,0.00,,,0.00,WUHU216HW,2013-01-03 09:35:00,
2013-01-03 04:40:00,10.8,-1.2,30.12,NNW,338,0.0,0.2,58,0.00,,,0.00,WUHU216HW,2013-01-03 09:40:00,
2013-01-03 04:45:00,10.8,-1.2,30.12,NW,315,0.4,0.4,58,0.00,,,0.00,WUHU216HW,2013-01-03 09:45:00,
2013-01-03 04:50:00,10.4,-1.4,30.12,NW,315,0.0,0.4,58,0.00,,,0.00,WUHU216HW,2013-01-03 09:50:00,
2013-01-03 04:55:00,10.4,-1.4,30.12,North,0,0.0,0.4,58,0.00,,,0.00,WUHU216HW,2013-01-03 09:55:00,
2013-01-03 05:00:00,10.3,-1.6,30.12,North,0,0.0,0.4,58,0.00,,,0.00,WUHU216HW,2013-01-03 10:00:00,
2013-01-03 05:05:00,10.1,-1.8,30.12,North,0,0.0,0.0,58,0.00,,,0.00,WUHU216HW,2013-01-03 10:05:00,
2013-01-03 05:10:00,10.1,-1.4,30.13,North,0,0.0,0.0,59,0.00,,,0.00,WUHU216HW,2013-01-03 10:10:00,
2013-01-03 05:15:00,9.9,-1.6,30.13,WNW,293,0.0,0.0,59,0.00,,,0.00,WUHU216HW,2013-01-03 10:15:00,
2013-01-03 05:20:00,9.7,-1.8,30.12,WNW,293,0.0,0.0,59,0.00,,,0.00,WUHU216HW,2013-01-03 10:20:00,
2013-01-03 05:25:00,9.7,-1.8,30.12,North,0,0.0,0.0,59,0.00,,,0.00,WUHU216HW,2013-01-03 10:25:00,
2013-01-03 05:30:00,9.5,-2.0,30.12,North,0,0.4,1.1,59,0.00,,,0.00,WUHU216HW,2013-01-03 10:30:00,
2013-01-03 05:35:00,9.4,-2.1,30.12,ESE,113,0.0,1.1,59,0.00,,,0.00,WUHU216HW,2013-01-03 10:35:00,
2013-01-03 05:40:00,9.2,-2.3,30.12,East,90,0.0,0.7,59,0.00,,,0.00,WUHU216HW,2013-01-03 10:40:00,
2013-01-03 05:45:00,9.0,-2.2,30.12,East,90,0.0,0.2,60,0.00,,,0.00,WUHU216HW,2013-01-03 10:45:00,
2013-01-03 05:50:00,9.0,-2.2,30.12,East,90,0.0,0.0,60,0.00,,,0.00,WUHU216HW,2013-01-03 10:50:00,
2013-01-03 05:55:00,9.0,-2.2,30.12,East,90,0.0,0.0,60,0.00,,,0.00,WUHU216HW,2013-01-03 10:55:00,
2013-01-03 06:00:00,8.8,-2.3,30.12,East,90,0.0,0.0,60,0.00,,,0.00,WUHU216HW,2013-01-03 11:00:00,
2013-01-03 06:05:00,8.8,-2.3,30.12,East,90,0.0,0.0,60,0.00,,,0.00,WUHU216HW,2013-01-03 11:05:00,
2013-01-03 06:10:00,8.6,-2.5,30.12,East,90,0.0,0.0,60,0.00,,,0.00,WUHU216HW,2013-01-03 11:10:00,
2013-01-03 06:15:00,8.5,-2.7,30.12,ENE,68,0.0,0.0,60,0.00,,,0.00,WUHU216HW,2013-01-03 11:15:00,
2013-01-03 06:20:00,8.3,-2.9,30.13,North,0,0.0,0.0,60,0.00,,,0.00,WUHU216HW,2013-01-03 11:20:00,
2013-01-03 06:25:00,8.3,-2.9,30.13,North,0,0.0,0.0,60,0.00,,,0.00,WUHU216HW,2013-01-03 11:25:00,
2013-01-03 06:30:00,8.1,-3.0,30.13,North,0,0.0,0.2,60,0.00,,,0.00,WUHU216HW,2013-01-03 11:30:00,
2013-01-03 06:35:00,7.9,-3.1,30.12,North,0,0.0,0.2,60,0.00,,,0.00,WUHU216HW,2013-01-03 11:35:00,
2013-01-03 06:40:00,7.7,-3.3,30.13,North,0,0.0,0.0,60,0.00,,,0.00,WUHU216HW,2013-01-03 11:40:00,
2013-01-03 06:45:00,7.6,-3.5,30.13,North,0,0.0,0.0,60,0.00,,,0.00,WUHU216HW,2013-01-03 11:45:00,
2013-01-03 06:50:00,7.4,-3.7,30.13,West,270,0.0,0.0,60,0.00,,,0.00,WUHU216HW,2013-01-03 11:50:00,
2013-01-03 06:55:00,7.4,-3.7,30.13,West,270,0.0,0.0,60,0.00,,,0.00,WUHU216HW,2013-01-03 11:55:00,
2013-01-03 07:00:00,7.2,-3.8,30.13,WSW,248,0.0,0.0,60,0.00,,,0.00,WUHU216HW,2013-01-03 12:00:00,
2013-01-03 07:05:00,7.2,-3.8,30.13,WSW,248,0.0,0.0,60,0.00,,,0.00,WUHU216HW,2013-01-03 12:05:00,
2013-01-03 07:10:00,7.0,-3.7,30.14,WSW,248,0.0,0.0,61,0.00,,,0.00,WUHU216HW,2013-01-03 12:10:00,
2013-01-03 07:15:00,7.0,-3.7,30.14,WSW,248,0.0,0.0,61,0.00,,,0.00,WUHU216HW,2013-01-03 12:15:00,
2013-01-03 07:20:00,6.8,-3.8,30.14,WSW,248,0.0,0.0,61,0.00,,,0.00,WUHU216HW,2013-01-03 12:20:00,
2013-01-03 07:25:00,6.8,-3.8,30.14,WSW,248,0.0,0.0,61,0.00,,,0.00,WUHU216HW,2013-01-03 12:25:00,
2013-01-03 07:30:00,6.7,-3.9,30.14,WSW,248,0.0,0.0,61,0.00,,,0.00,WUHU216HW,2013-01-03 12:30:00,
2013-01-03 07:35:00,6.7,-3.9,30.14,NNE,23,0.0,0.0,61,0.00,,,0.00,WUHU216HW,2013-01-03 12:35:00,
2013-01-03 07:40:00,6.5,-3.9,30.13,NNE,23,0.0,0.0,62,0.00,,,0.00,WUHU216HW,2013-01-03 12:40:00,
2013-01-03 07:45:00,6.3,-4.0,30.13,NNE,23,0.0,0.0,62,0.00,,,0.00,WUHU216HW,2013-01-03 12:45:00,
2013-01-03 07:50:00,6.5,-3.9,30.13,NNE,23,0.0,0.0,62,0.00,,,0.00,WUHU216HW,2013-01-03 12:50:00,
2013-01-03 07:55:00,6.3,-4.0,30.13,NNE,23,0.0,0.0,62,0.00,,,0.00,WUHU216HW,2013-01-03 12:55:00,
2013-01-03 08:00:00,6.5,-3.5,30.13,ENE,68,0.0,0.0,63,0.00,,,0.00,WUHU216HW,2013-01-03 13:00:00,
2013-01-03 08:05:00,5.9,-3.0,30.13,East,90,0.0,0.0,66,0.00,,,0.00,WUHU216HW,2013-01-03 13:05:00,
2013-01-03 08:10:00,5.6,-3.8,30.14,East,90,0.0,0.0,65,0.00,,,0.00,WUHU216HW,2013-01-03 13:10:00,
2013-01-03 08:15:00,5.9,-3.0,30.13,East,90,0.0,0.0,66,0.00,,,0.00,WUHU216HW,2013-01-03 13:15:00,
2013-01-03 08:20:00,6.1,-2.0,30.13,East,90,0.0,0.0,69,0.00,,,0.00,WUHU216HW,2013-01-03 13:20:00,
2013-01-03 08:25:00,6.5,-2.2,30.13,East,90,0.0,0.0,67,0.00,,,0.00,WUHU216HW,2013-01-03 13:25:00,
2013-01-03 08:30:00,7.2,-1.5,30.13,SE,135,0.7,0.9,67,0.00,,,0.00,WUHU216HW,2013-01-03 13:30:00,
2013-01-03 08:35:00,7.7,-1.0,30.13,ESE,113,0.9,1.1,67,0.00,,,0.00,WUHU216HW,2013-01-03 13:35:00,
2013-01-03 08:40:00,8.1,-1.0,30.13,ENE,68,1.8,1.8,66,0.00,,,0.00,WUHU216HW,2013-01-03 13:40:00,
2013-01-03 08:45:00,8.3,-1.2,30.13,ENE,68,0.9,1.8,65,0.00,,,0.00,WUHU216HW,2013-01-03 13:45:00,
2013-01-03 08:50:00,8.3,-1.2,30.12,ESE,113,1.3,1.8,65,0.00,,,0.00,WUHU216HW,2013-01-03 13:50:00,
2013-01-03 08:55:00,8.5,-1.3,30.13,North,0,0.0,1.8,64,0.00,,,0.00,WUHU216HW,2013-01-03 13:55:00,
2013-01-03 09:00:00,9.0,-0.8,30.13,NE,45,0.0,1.8,64,0.00,,,0.00,WUHU216HW,2013-01-03 14:00:00,
2013-01-03 09:05:00,9.5,-0.3,30.13,ENE,68,0.0,1.8,64,0.00,,,0.00,WUHU216HW,2013-01-03 14:05:00,
2013-01-03 09:10:00,10.3,0.4,30.13,North,0,0.4,0.4,64,0.00,,,0.00,WUHU216HW,2013-01-03 14:10:00,
2013-01-03 09:15:00,11.2,1.3,30.13,NE,45,0.9,1.6,64,0.00,,,0.00,WUHU216HW,2013-01-03 14:15:00,
2013-01-03 09:20:00,11.5,0.3,30.13,SE,135,0.2,1.6,60,0.00,,,0.00,WUHU216HW,2013-01-03 14:20:00,
2013-01-03 09:25:00,11.7,0.5,30.13,WNW,293,1.8,2.5,60,0.00,,,0.00,WUHU216HW,2013-01-03 14:25:00,
2013-01-03 09:30:00,11.7,0.0,30.13,West,270,0.4,2.5,59,0.00,,,0.00,WUHU216HW,2013-01-03 14:30:00,
2013-01-03 09:35:00,11.9,0.5,30.14,North,0,0.9,2.0,60,0.00,,,0.00,WUHU216HW,2013-01-03 14:35:00,
2013-01-03 09:40:00,12.6,1.3,30.14,NNW,338,0.0,2.2,60,0.00,,,0.00,WUHU216HW,2013-01-03 14:40:00,
2013-01-03 09:45:00,13.5,1.8,30.14,NNE,23,0.7,2.2,59,0.00,,,0.00,WUHU216HW,2013-01-03 14:45:00,
2013-01-03 09:50:00,13.3,1.2,30.15,NNW,338,0.0,1.6,58,0.00,,,0.00,WUHU216HW,2013-01-03 14:50:00,
2013-01-03 09:55:00,13.3,-0.7,30.14,West,270,1.6,3.4,53,0.00,,,0.00,WUHU216HW,2013-01-03 14:55:00,
2013-01-03 10:00:00,13.0,-0.3,30.14,North,0,0.0,3.4,55,0.00,,,0.00,WUHU216HW,2013-01-03 15:00:00,
2013-01-03 10:05:00,13.5,1.0,30.14,WNW,293,0.7,1.6,57,0.00,,,0.00,WUHU216HW,2013-01-03 15:05:00,
2013-01-03 10:10:00,14.4,2.3,30.14,WSW,248,0.0,1.1,58,0.00,,,0.00,WUHU216HW,2013-01-03 15:10:00,
2013-01-03 10:15:00,15.1,2.5,30.13,North,0,0.4,1.1,57,0.00,,,0.00,WUHU216HW,2013-01-03 15:15:00,
2013-01-03 10:20:00,15.3,0.4,30.13,ENE,68,0.0,2.0,51,0.00,,,0.00,WUHU216HW,2013-01-03 15:20:00,
2013-01-03 10:25:00,15.3,1.5,30.13,NE,45,1.1,2.0,54,0.00,,,0.00,WUHU216HW,2013-01-03 15:25:00,
2013-01-03 10:30:00,15.8,1.7,30.13,East,90,0.0,2.2,53,0.00,,,0.00,WUHU216HW,2013-01-03 15:30:00,
2013-01-03 10:35:00,15.8,1.7,30.13,NNW,338,0.7,2.2,53,0.00,,,0.00,WUHU216HW,2013-01-03 15:35:00,
2013-01-03 10:40:00,16.2,2.4,30.13,NE,45,0.0,1.1,54,0.00,,,0.00,WUHU216HW,2013-01-03 15:40:00,
2013-01-03 10:45:00,16.9,2.3,30.13,WNW,293,1.8,1.8,52,0.00,,,0.00,WUHU216HW,2013-01-03 15:45:00,
2013-01-03 10:50:00,16.9,1.5,30.12,WNW,293,1.6,2.2,50,0.00,,,0.00,WUHU216HW,2013-01-03 15:50:00,
2013-01-03 10:55:00,16.9,1.5,30.12,WNW,293,1.1,2.2,50,0.00,,,0.00,WUHU216HW,2013-01-03 15:55:00,
2013-01-03 11:00:00,17.6,2.5,30.12,NNE,23,1.1,2.2,51,0.00,,,0.00,WUHU216HW,2013-01-03 16:00:00,
2013-01-03 11:05:00,18.0,2.0,30.11,WSW,248,0.0,1.8,49,0.00,,,0.00,WUHU216HW,2013-01-03 16:05:00,
2013-01-03 11:10:00,18.2,2.2,30.11,ESE,113,0.4,1.1,49,0.00,,,0.00,WUHU216HW,2013-01-03 16:10:00,
2013-01-03 11:15:00,19.1,3.4,30.11,East,90,1.6,1.8,50,0.00,,,0.00,WUHU216HW,2013-01-03 16:15:00,
2013-01-03 11:20:00,18.9,2.3,30.10,SSE,158,0.0,2.2,48,0.00,,,0.00,WUHU216HW,2013-01-03 16:20:00,
2013-01-03 11:25:00,19.4,3.3,30.10,NNW,338,0.7,2.2,49,0.00,,,0.00,WUHU216HW,2013-01-03 16:25:00,
2013-01-03 11:30:00,19.8,3.2,30.10,SSW,203,0.7,1.8,48,0.00,,,0.00,WUHU216HW,2013-01-03 16:30:00,
2013-01-03 11:35:00,20.3,4.2,30.09,South,180,1.3,2.9,49,0.00,,,0.00,WUHU216HW,2013-01-03 16:35:00,
2013-01-03 11:40:00,20.9,5.0,30.09,SSE,158,0.4,2.9,50,0.00,,,0.00,WUHU216HW,2013-01-03 16:40:00,
2013-01-03 11:45:00,21.6,6.2,30.09,SW,225,0.4,1.8,51,0.00,,,0.00,WUHU216HW,2013-01-03 16:45:00,
2013-01-03 11:50:00,22.1,4.4,30.08,NW,315,1.1,1.6,46,0.00,,,0.00,WUHU216HW,2013-01-03 16:50:00,
2013-01-03 11:55:00,22.0,5.7,30.08,North,0,0.9,1.3,49,0.00,,,0.00,WUHU216HW,2013-01-03 16:55:00,
2013-01-03 12:00:00,22.1,5.3,30.07,East,90,2.9,2.9,48,0.00,,,0.00,WUHU216HW,2013-01-03 17:00:00,
2013-01-03 12:05:00,21.8,3.1,30.07,ESE,113,1.1,3.8,44,0.00,,,0.00,WUHU216HW,2013-01-03 17:05:00,
2013-01-03 12:11:00,21.4,3.3,30.07,SE,135,3.1,3.8,45,0.00,,,0.00,WUHU216HW,2013-01-03 17:11:00,
2013-01-03 12:16:00,21.2,3.5,30.07,SE,135,2.2,3.1,46,0.00,,,0.00,WUHU216HW,2013-01-03 17:16:00,
2013-01-03 12:21:00,21.4,2.8,30.06,ESE,113,0.7,3.1,44,0.00,,,0.00,WUHU216HW,2013-01-03 17:21:00,
2013-01-03 12:26:00,21.4,3.7,30.06,SSE,158,1.1,1.6,46,0.00,,,0.00,WUHU216HW,2013-01-03 17:26:00,
2013-01-03 12:31:00,22.1,5.3,30.06,WSW,248,0.0,1.6,48,0.00,,,0.00,WUHU216HW,2013-01-03 17:31:00,
2013-01-03 12:36:00,23.0,6.2,30.06,East,90,0.4,2.2,48,0.00,,,0.00,WUHU216HW,2013-01-03 17:36:00,
2013-01-03 12:41:00,23.9,7.6,30.06,ENE,68,0.9,2.2,49,0.00,,,0.00,WUHU216HW,2013-01-03 17:41:00,
2013-01-03 12:46:00,24.1,5.8,30.05,SE,135,1.1,1.8,45,0.00,,,0.00,WUHU216HW,2013-01-03 17:46:00,
2013-01-03 12:51:00,24.1,6.2,30.05,East,90,1.8,1.8,46,0.00,,,0.00,WUHU216HW,2013-01-03 17:51:00,
2013-01-03 12:56:00,24.5,7.6,30.05,ESE,113,0.7,2.0,48,0.00,,,0.00,WUHU216HW,2013-01-03 17:56:00,
2013-01-03 13:01:00,24.7,7.7,30.04,NE,45,2.2,2.2,48,0.00,,,0.00,WUHU216HW,2013-01-03 18:01:00,
2013-01-03 13:06:00,25.2,7.7,30.04,ESE,113,2.2,2.2,47,0.00,,,0.00,WUHU216HW,2013-01-03 18:06:00,
2013-01-03 13:11:00,25.4,7.8,30.04,North,0,0.9,2.5,47,0.00,,,0.00,WUHU216HW,2013-01-03 18:11:00,
2013-01-03 13:16:00,25.6,8.5,30.04,SE,135,0.2,2.5,48,0.00,,,0.00,WUHU216HW,2013-01-03 18:16:00,
2013-01-03 13:21:00,25.7,7.7,30.03,SW,225,2.0,2.5,46,0.00,,,0.00,WUHU216HW,2013-01-03 18:21:00,
2013-01-03 13:26:00,25.9,8.4,30.03,North,0,0.0,3.6,47,0.00,,,0.00,WUHU216HW,2013-01-03 18:26:00,
2013-01-03 13:31:00,25.9,8.8,30.03,East,90,0.2,3.6,48,0.00,,,0.00,WUHU216HW,2013-01-03 18:31:00,
2013-01-03 13:36:00,26.5,8.8,30.03,WNW,293,0.9,2.0,47,0.00,,,0.00,WUHU216HW,2013-01-03 18:36:00,
2013-01-03 13:41:00,26.6,9.5,30.03,North,0,0.4,2.0,48,0.00,,,0.00,WUHU216HW,2013-01-03 18:41:00,
2013-01-03 13:46:00,27.0,8.8,30.03,SE,135,1.6,1.6,46,0.00,,,0.00,WUHU216HW,2013-01-03 18:46:00,
2013-01-03 13:51:00,26.8,8.6,30.03,ESE,113,1.8,1.8,46,0.00,,,0.00,WUHU216HW,2013-01-03 18:51:00,
2013-01-03 13:56:00,26.6,7.6,30.03,SSW,203,0.4,1.8,44,0.00,,,0.00,WUHU216HW,2013-01-03 18:56:00,
2013-01-03 14:01:00,26.3,6.8,30.03,East,90,4.0,4.0,43,0.00,,,0.00,WUHU216HW,2013-01-03 19:01:00,
2013-01-03 14:06:00,25.7,7.2,30.02,NE,45,0.7,4.0,45,0.00,,,0.00,WUHU216HW,2013-01-03 19:06:00,
2013-01-03 14:11:00,26.3,7.7,30.03,ESE,113,1.6,3.4,45,0.00,,,0.00,WUHU216HW,2013-01-03 19:11:00,
2013-01-03 14:16:00,26.8,9.2,30.03,North,0,0.2,2.2,47,0.00,,,0.00,WUHU216HW,2013-01-03 19:16:00,
2013-01-03 14:54:00,28.4,11.3,30.02,South,180,1.1,1.8,48,0.00,,,0.00,WUHU216HW,2013-01-03 19:54:00,
2013-01-03 14:59:00,28.6,9.9,30.02,East,90,2.5,2.5,45,0.00,,,0.00,WUHU216HW,2013-01-03 19:59:00,
2013-01-03 15:04:00,27.4,8.2,30.02,ESE,113,0.7,2.5,44,0.00,,,0.00,WUHU216HW,2013-01-03 20:04:00,
2013-01-03 15:09:00,27.0,8.8,30.02,SE,135,0.7,2.5,46,0.00,,,0.00,WUHU216HW,2013-01-03 20:09:00,
2013-01-03 15:14:00,27.0,9.4,30.01,SSE,158,0.4,1.8,47,0.00,,,0.00,WUHU216HW,2013-01-03 20:14:00,
2013-01-03 15:19:00,27.4,10.2,30.02,SE,135,0.0,2.5,48,0.00,,,0.00,WUHU216HW,2013-01-03 20:19:00,
2013-01-03 15:24:00,27.7,10.5,30.01,South,180,2.2,2.5,48,0.00,,,0.00,WUHU216HW,2013-01-03 20:24:00,
2013-01-03 15:29:00,27.9,10.7,30.01,South,180,0.4,2.5,48,0.00,,,0.00,WUHU216HW,2013-01-03 20:29:00,
2013-01-03 15:34:00,27.9,10.7,30.02,SSE,158,0.4,1.8,48,0.00,,,0.00,WUHU216HW,2013-01-03 20:34:00,
2013-01-03 15:39:00,28.1,10.9,30.01,SE,135,0.0,1.8,48,0.00,,,0.00,WUHU216HW,2013-01-03 20:39:00,
2013-01-03 15:44:00,28.1,10.9,30.01,SW,225,0.0,1.8,48,0.00,,,0.00,WUHU216HW,2013-01-03 20:44:00,
2013-01-03 15:49:00,27.9,10.7,30.01,West,270,0.0,1.8,48,0.00,,,0.00,WUHU216HW,2013-01-03 20:49:00,
2013-01-03 15:54:00,27.7,10.5,30.01,West,270,0.0,0.9,48,0.00,,,0.00,WUHU216HW,2013-01-03 20:54:00,
2013-01-03 15:59:00,27.7,10.5,30.01,SSW,203,0.0,0.4,48,0.00,,,0.00,WUHU216HW,2013-01-03 20:59:00,
2013-01-03 16:04:00,27.4,10.2,30.01,SSW,203,0.0,0.4,48,0.00,,,0.00,WUHU216HW,2013-01-03 21:04:00,
2013-01-03 16:09:00,27.0,9.8,30.01,SSE,158,0.0,0.7,48,0.00,,,0.00,WUHU216HW,2013-01-03 21:09:00,
2013-01-03 16:14:00,26.3,9.2,30.01,SE,135,0.0,0.7,48,0.00,,,0.00,WUHU216HW,2013-01-03 21:14:00,
2013-01-03 16:19:00,25.6,9.0,30.01,SE,135,0.0,0.0,49,0.00,,,0.00,WUHU216HW,2013-01-03 21:19:00,
2013-01-03 16:24:00,24.8,8.8,30.01,SE,135,0.0,0.0,50,0.00,,,0.00,WUHU216HW,2013-01-03 21:24:00,
2013-01-03 16:29:00,24.3,8.4,30.01,ESE,113,0.9,1.1,50,0.00,,,0.00,WUHU216HW,2013-01-03 21:29:00,
2013-01-03 16:34:00,24.1,8.2,30.01,ESE,113,0.0,1.1,50,0.00,,,0.00,WUHU216HW,2013-01-03 21:34:00,
2013-01-03 16:39:00,23.9,8.0,30.01,ESE,113,0.0,0.7,50,0.00,,,0.00,WUHU216HW,2013-01-03 21:39:00,
2013-01-03 16:44:00,23.6,8.1,30.01,ESE,113,0.0,0.0,51,0.00,,,0.00,WUHU216HW,2013-01-03 21:44:00,
2013-01-03 16:49:00,23.2,7.7,30.01,ESE,113,0.0,0.0,51,0.00,,,0.00,WUHU216HW,2013-01-03 21:49:00,
2013-01-03 16:54:00,22.9,7.4,30.01,ESE,113,0.0,0.0,51,0.00,,,0.00,WUHU216HW,2013-01-03 21:54:00,
2013-01-03 16:59:00,22.7,7.7,30.01,ESE,113,0.0,0.0,52,0.00,,,0.00,WUHU216HW,2013-01-03 21:59:00,
2013-01-03 17:04:00,22.5,7.5,30.01,ESE,113,0.0,0.0,52,0.00,,,0.00,WUHU216HW,2013-01-03 22:04:00,
2013-01-03 17:09:00,22.3,7.3,30.01,ESE,113,0.0,0.0,52,0.00,,,0.00,WUHU216HW,2013-01-03 22:09:00,
2013-01-03 17:14:00,22.0,6.9,30.02,ESE,113,0.0,0.0,52,0.00,,,0.00,WUHU216HW,2013-01-03 22:14:00,
2013-01-03 17:19:00,21.8,7.2,30.02,ESE,113,0.0,0.0,53,0.00,,,0.00,WUHU216HW,2013-01-03 22:19:00,
2013-01-03 17:24:00,21.4,6.9,30.02,ESE,113,0.0,0.0,53,0.00,,,0.00,WUHU216HW,2013-01-03 22:24:00,
2013-01-03 17:29:00,21.2,7.0,30.02,ESE,113,0.0,0.0,54,0.00,,,0.00,WUHU216HW,2013-01-03 22:29:00,
2013-01-03 17:34:00,21.1,6.9,30.01,ESE,113,0.0,0.0,54,0.00,,,0.00,WUHU216HW,2013-01-03 22:34:00,
2013-01-03 17:39:00,20.7,6.6,30.02,NE,45,0.0,0.0,54,0.00,,,0.00,WUHU216HW,2013-01-03 22:39:00,
2013-01-03 17:44:00,20.5,6.8,30.02,NE,45,0.0,0.0,55,0.00,,,0.00,WUHU216HW,2013-01-03 22:44:00,
2013-01-03 17:49:00,20.3,6.7,30.02,NE,45,0.0,0.0,55,0.00,,,0.00,WUHU216HW,2013-01-03 22:49:00,
2013-01-03 17:54:00,20.2,6.5,30.01,NE,45,0.0,0.0,55,0.00,,,0.00,WUHU216HW,2013-01-03 22:54:00,
2013-01-03 17:59:00,19.8,6.5,30.02,ENE,68,0.0,0.0,56,0.00,,,0.00,WUHU216HW,2013-01-03 22:59:00,
2013-01-03 18:04:00,19.4,6.9,30.01,ESE,113,0.0,0.0,58,0.00,,,0.00,WUHU216HW,2013-01-03 23:04:00,
2013-01-03 18:09:00,19.1,7.0,30.01,ESE,113,0.0,0.0,59,0.00,,,0.00,WUHU216HW,2013-01-03 23:09:00,
2013-01-03 18:14:00,19.1,6.7,30.02,ESE,113,0.0,0.0,58,0.00,,,0.00,WUHU216HW,2013-01-03 23:14:00,
2013-01-03 18:19:00,18.9,6.5,30.01,ESE,113,0.0,0.0,58,0.00,,,0.00,WUHU216HW,2013-01-03 23:19:00,
2013-01-03 18:24:00,18.9,6.8,30.01,ESE,113,0.0,0.0,59,0.00,,,0.00,WUHU216HW,2013-01-03 23:24:00,
2013-01-03 18:29:00,18.7,6.3,30.02,NNE,23,0.4,0.9,58,0.00,,,0.00,WUHU216HW,2013-01-03 23:29:00,
2013-01-03 18:34:00,18.9,8.3,30.02,East,90,0.7,0.9,63,0.00,,,0.00,WUHU216HW,2013-01-03 23:34:00,
2013-01-03 18:39:00,18.9,8.7,30.02,ESE,113,0.2,1.1,64,0.00,,,0.00,WUHU216HW,2013-01-03 23:39:00,
2013-01-03 18:44:00,18.7,7.7,30.02,ESE,113,0.0,1.1,62,0.00,,,0.00,WUHU216HW,2013-01-03 23:44:00,
2013-01-03 18:49:00,18.9,7.9,30.02,ESE,113,0.0,0.2,62,0.00,,,0.00,WUHU216HW,2013-01-03 23:49:00,
2013-01-03 18:54:00,18.9,7.6,30.02,SE,135,0.4,0.4,61,0.00,,,0.00,WUHU216HW,2013-01-03 23:54:00,
2013-01-03 18:59:00,18.9,7.9,30.02,SE,135,0.4,0.4,62,0.00,,,0.00,WUHU216HW,2013-01-03 23:59:00,
2013-01-03 19:04:00,18.9,9.0,30.01,SE,135,0.0,0.4,65,0.00,,,0.00,WUHU216HW,2013-01-04 00:04:00,
2013-01-03 19:09:00,18.9,9.0,30.01,SE,135,0.0,0.4,65,0.00,,,0.00,WUHU216HW,2013-01-04 00:09:00,
2013-01-03 19:14:00,19.1,8.8,30.02,SE,135,0.0,0.0,64,0.00,,,0.00,WUHU216HW,2013-01-04 00:14:00,
2013-01-03 19:19:00,19.1,9.1,30.02,SE,135,0.0,0.0,65,0.00,,,0.00,WUHU216HW,2013-01-04 00:19:00,
2013-01-03 19:24:00,19.1,9.1,30.02,East,90,0.0,0.0,65,0.00,,,0.00,WUHU216HW,2013-01-04 00:24:00,
2013-01-03 19:29:00,19.3,9.3,30.01,ESE,113,0.0,0.0,65,0.00,,,0.00,WUHU216HW,2013-01-04 00:29:00,
2013-01-03 19:34:00,19.3,10.0,30.01,ESE,113,0.0,0.0,67,0.00,,,0.00,WUHU216HW,2013-01-04 00:34:00,
2013-01-03 19:39:00,19.3,9.3,30.01,SE,135,1.1,1.1,65,0.00,,,0.00,WUHU216HW,2013-01-04 00:39:00,
2013-01-03 19:44:00,19.3,9.6,30.01,SE,135,0.0,1.1,66,0.00,,,0.00,WUHU216HW,2013-01-04 00:44:00,
2013-01-03 19:49:00,19.3,9.6,30.01,ESE,113,0.0,1.1,66,0.00,,,0.00,WUHU216HW,2013-01-04 00:49:00,
2013-01-03 19:54:00,19.3,9.3,30.01,ESE,113,0.0,0.0,65,0.00,,,0.00,WUHU216HW,2013-01-04 00:54:00,
2013-01-03 19:59:00,19.3,10.0,30.01,ESE,113,0.0,0.0,67,0.00,,,0.00,WUHU216HW,2013-01-04 00:59:00,
2013-01-03 20:04:00,19.3,9.3,30.01,ESE,113,0.0,0.0,65,0.00,,,0.00,WUHU216HW,2013-01-04 01:04:00,
2013-01-03 20:09:00,19.4,10.2,30.01,East,90,0.4,0.7,67,0.00,,,0.00,WUHU216HW,2013-01-04 01:09:00,
2013-01-03 20:14:00,19.4,9.8,30.01,East,90,0.4,0.9,66,0.00,,,0.00,WUHU216HW,2013-01-04 01:14:00,
2013-01-03 20:19:00,19.4,9.5,30.02,East,90,0.0,0.9,65,0.00,,,0.00,WUHU216HW,2013-01-04 01:19:00,
2013-01-03 20:24:00,19.6,11.0,30.02,East,90,0.7,1.1,69,0.00,,,0.00,WUHU216HW,2013-01-04 01:24:00,
2013-01-03 20:29:00,19.6,10.6,30.02,East,90,0.0,1.1,68,0.00,,,0.00,WUHU216HW,2013-01-04 01:29:00,
2013-01-03 20:34:00,19.8,10.8,30.02,East,90,0.0,0.9,68,0.00,,,0.00,WUHU216HW,2013-01-04 01:34:00,
2013-01-03 20:39:00,19.8,10.5,30.02,ESE,113,0.0,0.0,67,0.00,,,0.00,WUHU216HW,2013-01-04 01:39:00,
2013-01-03 20:44:00,19.8,10.5,30.02,SE,135,0.0,1.1,67,0.00,,,0.00,WUHU216HW,2013-01-04 01:44:00,
2013-01-03 20:49:00,19.8,11.2,30.02,ESE,113,0.0,1.1,69,0.00,,,0.00,WUHU216HW,2013-01-04 01:49:00,
2013-01-03 20:54:00,19.8,11.2,30.01,ESE,113,0.4,1.1,69,0.00,,,0.00,WUHU216HW,2013-01-04 01:54:00,
2013-01-03 20:59:00,19.8,11.5,30.01,ESE,113,0.7,1.1,70,0.00,,,0.00,WUHU216HW,2013-01-04 01:59:00,
2013-01-03 21:04:00,19.6,11.0,30.01,ESE,113,0.0,1.1,69,0.00,,,0.00,WUHU216HW,2013-01-04 02:04:00,
2013-01-03 21:09:00,19.6,10.6,30.00,South,180,0.0,0.9,68,0.00,,,0.00,WUHU216HW,2013-01-04 02:09:00,
2013-01-03 21:14:00,19.6,10.4,30.00,SSW,203,0.0,0.0,67,0.00,,,0.00,WUHU216HW,2013-01-04 02:14:00,
2013-01-03 21:19:00,19.6,11.0,30.00,SE,135,0.0,0.4,69,0.00,,,0.00,WUHU216HW,2013-01-04 02:19:00,
2013-01-03 21:24:00,19.8,11.5,30.00,East,90,1.1,1.8,70,0.00,,,0.00,WUHU216HW,2013-01-04 02:24:00,
2013-01-03 21:29:00,19.8,11.8,30.00,East,90,1.8,2.5,71,0.00,,,0.00,WUHU216HW,2013-01-04 02:29:00,
2013-01-03 21:34:00,20.0,11.7,30.00,ENE,68,0.0,2.5,70,0.00,,,0.00,WUHU216HW,2013-01-04 02:34:00,
2013-01-03 21:39:00,20.2,11.5,30.01,North,0,0.4,1.8,69,0.00,,,0.00,WUHU216HW,2013-01-04 02:39:00,
2013-01-03 21:44:00,20.2,11.2,30.01,North,0,0.0,0.9,68,0.00,,,0.00,WUHU216HW,2013-01-04 02:44:00,
2013-01-03 21:49:00,20.2,11.2,30.01,North,0,0.0,0.4,68,0.00,,,0.00,WUHU216HW,2013-01-04 02:49:00,
2013-01-03 21:54:00,20.2,11.2,30.01,SSE,158,0.0,0.0,68,0.00,,,0.00,WUHU216HW,2013-01-04 02:54:00,
2013-01-03 21:59:00,20.2,11.2,30.00,South,180,0.7,0.7,68,0.00,,,0.00,WUHU216HW,2013-01-04 02:59:00,
2013-01-03 22:04:00,20.3,11.7,30.00,South,180,0.4,0.7,69,0.00,,,0.00,WUHU216HW,2013-01-04 03:04:00,
2013-01-03 22:09:00,20.3,11.7,30.00,SSW,203,0.2,0.7,69,0.00,,,0.00,WUHU216HW,2013-01-04 03:09:00,
2013-01-03 22:14:00,20.3,11.7,30.00,SE,135,0.0,0.7,69,0.00,,,0.00,WUHU216HW,2013-01-04 03:14:00,
2013-01-03 22:19:00,20.5,12.2,30.00,ESE,113,0.0,0.0,70,0.00,,,0.00,WUHU216HW,2013-01-04 03:19:00,
2013-01-03 22:24:00,20.7,12.4,30.00,ESE,113,0.4,0.9,70,0.00,,,0.00,WUHU216HW,2013-01-04 03:24:00,
2013-01-03 22:29:00,20.7,12.7,30.00,ESE,113,0.0,0.9,71,0.00,,,0.00,WUHU216HW,2013-01-04 03:29:00,
2013-01-03 22:34:00,20.7,12.4,30.00,ESE,113,0.0,0.9,70,0.00,,,0.00,WUHU216HW,2013-01-04 03:34:00,
2013-01-03 22:39:00,20.5,12.5,30.00,SE,135,0.4,1.1,71,0.00,,,0.00,WUHU216HW,2013-01-04 03:39:00,
2013-01-03 22:45:00,20.5,12.5,30.00,ESE,113,0.7,1.1,71,0.00,,,0.00,WUHU216HW,2013-01-04 03:45:00,
2013-01-03 22:50:00,20.5,12.5,29.99,ESE,113,0.4,1.1,71,0.00,,,0.00,WUHU216HW,2013-01-04 03:50:00,
2013-01-03 22:55:00,20.5,12.5,29.99,ESE,113,0.4,1.1,71,0.00,,,0.00,WUHU216HW,2013-01-04 03:55:00,
2013-01-03 23:00:00,20.5,12.2,29.99,ESE,113,0.0,1.1,70,0.00,,,0.00,WUHU216HW,2013-01-04 04:00:00,
2013-01-03 23:05:00,20.3,12.1,29.99,SE,135,0.4,1.1,70,0.00,,,0.00,WUHU216HW,2013-01-04 04:05:00,
2013-01-03 23:10:00,20.2,11.9,29.98,SE,135,0.0,0.4,70,0.00,,,0.00,WUHU216HW,2013-01-04 04:10:00,
2013-01-03 23:15:00,20.2,11.9,29.98,SE,135,0.0,0.4,70,0.00,,,0.00,WUHU216HW,2013-01-04 04:15:00,
2013-01-03 23:20:00,20.0,11.7,29.98,ESE,113,0.0,0.7,70,0.00,,,0.00,WUHU216HW,2013-01-04 04:20:00,
2013-01-03 23:25:00,19.8,11.5,29.98,ESE,113,0.0,0.7,70,0.00,,,0.00,WUHU216HW,2013-01-04 04:25:00,
2013-01-03 23:30:00,19.6,11.3,29.98,ESE,113,0.0,0.0,70,0.00,,,0.00,WUHU216HW,2013-01-04 04:30:00,
2013-01-03 23:35:00,19.4,11.2,29.98,ESE,113,0.0,0.0,70,0.00,,,0.00,WUHU216HW,2013-01-04 04:35:00,
2013-01-03 23:40:00,19.3,11.0,29.97,ESE,113,0.0,0.0,70,0.00,,,0.00,WUHU216HW,2013-01-04 04:40:00,
2013-01-03 23:45:00,19.1,10.8,29.97,SE,135,0.0,1.1,70,0.00,,,0.00,WUHU216HW,2013-01-04 04:45:00,
2013-01-03 23:50:00,19.1,10.5,29.97,SE,135,0.0,1.1,69,0.00,,,0.00,WUHU216HW,2013-01-04 04:50:00,
2013-01-03 23:55:00,19.1,10.8,29.97,SE,135,0.0,0.0,70,0.00,,,0.00,WUHU216HW,2013-01-04 04:55:00,